User: anonymous   Login
Location: Unspecified
(0.0000°N, 0.0000°E)
Time: 00:24:35
(UTC+00:00)
Language:

N. Korean satellite - Orbit

View from above orbital plane
View from above orbital plane
View from above satellite
View from above satellite

Ground track
Ground track

The orbit data is extracted from the following two-line orbital elements,

1 39026U 12072A   19108.74981513  .00001472  00000-0  56140-4 0  9993
2 39026  97.2118 113.8781 0037040 320.1388  39.7132 15.27651473352295
Epoch (UTC): 18 April 2019 17:59:44
Eccentricity: 0.0037040
inclination: 97.2118°
perigee height: 457 km
apogee height: 508 km
right ascension of ascending node: 113.8781°
argument of perigee: 320.1388°
revolutions per day: 15.27651473
mean anomaly at epoch: 39.7132°
orbit number at epoch: 35229

The dashed part of the orbit path shows where the satellite is in the earth's shadow,  

DLR